Flag for United Kingdom Weather past 2 weeks in Aylesbury, England, United Kingdom

Now
55 °F

Cool.


Feels Like: 51 °F
Forecast: 43 / 54 °F
Wind: 14 mph from Southwest

Location: High Wicombe Hqstc

Current Time: Mar 28, 2015 at 12:46:15 PM

Latest Report: Mar 28, 2015 at 12:00 PM


Visibility: 22 mi

Pressure: 29.81 "Hg

Humidity: 76%

Dew point: 47 °F

Location of AylesburyLocation

Historic Weather in Aylesbury — Graph

°F

Aylesbury temperature yesterday

Maximum temperature yesterday: 52 °F (at 3:00 PM)
Minimum temperature yesterday: 36 °F (at 6:00 AM)
Average temperature yesterday: 44 °F

Past Weeks' High & Low Weather Summary

 TemperatureHumidityPressure
High53 °F (Mar 28, 11:00 AM)100% (Mar 17, 6:00 AM)30.55 "Hg (Mar 17, 6:00 AM)
Low32 °F (Mar 25, 7:00 AM)37% (Mar 13, 2:00 PM)29.54 "Hg (Mar 26, 8:00 AM)
Average41 °F79%30.19 "Hg
* Reported Mar 13 11:00 AM — Mar 28 11:00 AM, Aylesbury, Weather by CustomWeather, © 2015

Note: Actual official high and low records may vary slightly from our data, if they occured in-between our weather recording intervals... More about our weather records

Advertising

Aylesbury weather history for previous 24 hours

 ConditionsComfort  
Time TempWeatherWind HumidityBarometerVisibility
11:00 AM
Sat, Mar 28
53 °FCool.10 mph87%29.85 "Hg22 mi
10:00 AM51 °FCool.12 mph97%29.87 "Hg16 mi
9:00 AM50 °FCool.12 mph100%29.89 "Hg9 mi
8:00 AM48 °FCool.12 mph100%29.92 "Hg1 mi
7:00 AM47 °FDuststorm.8 mph100%29.93 "Hg0 mi
6:00 AM45 °FRain showers. Cloudy.8 mph99%29.95 "Hg0 mi
5:00 AM45 °FDuststorm.6 mph99%29.98 "Hg0 mi
4:00 AM44 °FLight rain. Overcast.6 mph99%30.00 "Hg0 mi
2:00 AM43 °FFog.6 mph97%30.05 "Hg1 mi
1:00 AM43 °FQuite cool.6 mph92%30.08 "Hg7 mi
12:00 AM43 °FQuite cool.5 mph90%30.10 "Hg7 mi
11:00 PM
Fri, Mar 27
43 °FQuite cool.6 mph88%30.12 "Hg8 mi
10:00 PM43 °FQuite cool.7 mph83%30.13 "Hg9 mi
8:00 PM46 °FCool.7 mph71%30.14 "Hg12 mi
7:00 PM47 °FCool.3 mph57%30.13 "Hg19 mi
6:00 PM50 °FCool.5 mph51%30.12 "Hg22 mi
5:00 PM52 °FCool.5 mph49%30.11 "Hg22 mi
4:00 PM51 °FCool.3 mph49%30.12 "Hg16 mi
3:00 PM52 °FCool.8 mph48%30.12 "Hg25 mi
2:00 PM51 °FCool.8 mph48%30.13 "Hg16 mi
1:00 PM49 °FCool.7 mph50%30.14 "Hg17 mi
12:00 PM48 °FCool.9 mph53%30.13 "Hg28 mi
Weather by CustomWeather, © 2015

See weather overviewHow to use our weather pages